Location: Diati
(11.8376°N, 2.5966°E)
Time: 17:18:37
(UTC+00:00)

YAOGAN 1 - Pass Details

Date: 21 September 2020
Orbit: 618 x 620 km, 97.9° (Epoch: 19 October)

Event Time Altitude Azimuth Distance (km) Brightness Sun altitude
Rises 19:03:57 0° 176° (S) 2,886 5.9 -19.9°
Reaches altitude 10° 19:06:10 10° 180° (S) 1,980 5.1 -20.4°
Maximum altitude 19:10:23 56° 259° (W) 737 3.2 -21.4°
Drops below altitude 10° 19:14:37 10° 337° (NNW) 1,980 5.5 -22.5°
Sets 19:16:50 0° 342° (NNW) 2,886 6.3 -23.0°
